TimeCST,TemperatureF,Dew PointF,Humidity,Sea Level PressureIn,VisibilityMPH,Wind Direction,Wind SpeedMPH,Gust SpeedMPH,PrecipitationIn,Events,Conditions,WindDirDegrees,DateUTC
12:53 AM,57.0,53.1,87,30.21,10.0,SE,4.6,-,N/A,,Clear,140,2013-01-20 06:53:00
1:53 AM,57.0,52.0,83,30.19,10.0,SE,5.8,-,N/A,,Clear,130,2013-01-20 07:53:00
2:53 AM,55.9,52.0,87,30.18,10.0,SE,3.5,-,N/A,,Clear,130,2013-01-20 08:53:00
3:53 AM,55.0,51.1,86,30.17,10.0,SE,3.5,-,N/A,,Clear,130,2013-01-20 09:53:00
4:53 AM,55.0,51.1,86,30.17,9.0,ESE,3.5,-,N/A,,Clear,110,2013-01-20 10:53:00
5:53 AM,55.9,52.0,87,30.19,10.0,East,3.5,-,N/A,,Clear,90,2013-01-20 11:53:00
6:53 AM,54.0,51.1,90,30.19,9.0,ENE,4.6,-,N/A,,Scattered Clouds,70,2013-01-20 12:53:00
7:53 AM,57.0,53.1,87,30.21,9.0,ENE,4.6,-,N/A,,Clear,70,2013-01-20 13:53:00
8:53 AM,62.1,57.9,86,30.23,10.0,ENE,3.5,-,N/A,,Clear,70,2013-01-20 14:53:00
9:53 AM,64.9,57.0,75,30.24,10.0,ENE,5.8,-,N/A,,Clear,70,2013-01-20 15:53:00
10:53 AM,69.1,54.0,58,30.24,10.0,East,8.1,-,N/A,,Partly Cloudy,80,2013-01-20 16:53:00
11:53 AM,71.1,54.0,55,30.22,10.0,ENE,9.2,-,N/A,,Mostly Cloudy,70,2013-01-20 17:53:00
12:53 PM,72.0,54.0,53,30.17,10.0,East,11.5,-,N/A,,Clear,80,2013-01-20 18:53:00
1:53 PM,73.0,53.1,49,30.13,10.0,East,11.5,-,N/A,,Clear,90,2013-01-20 19:53:00
2:53 PM,72.0,54.0,53,30.12,10.0,East,12.7,-,N/A,,Clear,90,2013-01-20 20:53:00
3:53 PM,71.1,55.0,57,30.11,1.8,East,11.5,-,N/A,,Haze,90,2013-01-20 21:53:00
4:06 PM,71.6,55.4,57,30.11,10.0,East,12.7,-,N/A,,Clear,90,2013-01-20 22:06:00
4:53 PM,70.0,55.0,59,30.11,10.0,East,10.4,-,N/A,,Clear,90,2013-01-20 22:53:00
5:53 PM,66.0,55.9,70,30.11,10.0,East,6.9,-,N/A,,Clear,90,2013-01-20 23:53:00
6:53 PM,63.0,55.9,78,30.12,10.0,East,5.8,-,N/A,,Clear,90,2013-01-21 00:53:00
7:53 PM,62.1,55.9,80,30.13,10.0,East,5.8,-,N/A,,Clear,100,2013-01-21 01:53:00
8:53 PM,61.0,55.9,83,30.14,10.0,East,5.8,-,N/A,,Clear,100,2013-01-21 02:53:00
9:53 PM,62.1,55.9,80,30.14,10.0,ESE,5.8,-,N/A,,Clear,120,2013-01-21 03:53:00
10:53 PM,61.0,55.9,83,30.15,10.0,SE,3.5,-,N/A,,Clear,140,2013-01-21 04:53:00
11:53 PM,60.1,55.0,83,30.15,10.0,ESE,4.6,-,N/A,,Clear,120,2013-01-21 05:53:00